"Period start","avg(HW err(1)/warn(2) (#))","avg(Visibility (m))","avg(Weather code (#))","avg(Precip intensity (mm/h))","min(HW err(1)/warn(2) (#))","max(HW err(1)/warn(2) (#))","std(HW err(1)/warn(2) (#))","med(HW err(1)/warn(2) (#))","min(Visibility (m))","max(Visibility (m))","std(Visibility (m))","med(Visibility (m))","min(Weather code (#))","max(Weather code (#))","std(Weather code (#))","med(Weather code (#))","min(Precip intensity (mm/h))","max(Precip intensity (mm/h))","std(Precip intensity (mm/h))","med(Precip intensity (mm/h))"
2014-10-23 00:00:00,2,2923,71,1.12,2,2,0,2,1329,3898,748,2784,71,71,0,71,0.05,5.85,1.73,0.23
2014-10-23 00:10:00,2,5091,59,0.20,2,2,0,2,2936,7308,1274,5071,10,71,24,71,0.00,0.85,0.33,0.00
2014-10-23 00:20:00,2,5158,61,0.01,2,2,0,2,2963,7480,1311,5244,10,77,26,71,0.00,0.05,0.02,0.00
2014-10-23 00:30:00,2,5902,10,0.00,2,2,0,2,3899,7503,1144,5972,10,10,0,10,0.00,0.00,0.00,0.00
2014-10-23 00:40:00,2,3096,71,1.54,2,2,0,2,887,5067,1372,3658,71,71,0,71,0.00,6.65,2.09,0.60
2014-10-23 00:50:00,2,4967,71,0.04,2,2,0,2,3444,6722,1008,5010,71,71,0,71,0.00,0.20,0.06,0.05
2014-10-23 01:00:00,2,4216,71,1.27,2,2,0,2,1115,6941,1915,4187,71,71,0,71,0.00,6.20,2.00,0.12
2014-10-23 01:10:00,2,3877,71,1.08,2,2,0,2,1439,5520,1290,4054,71,71,0,71,0.05,4.90,1.43,0.57
2014-10-23 01:20:00,2,4461,71,0.17,2,2,0,2,3544,5499,523,4536,71,71,0,71,0.00,0.70,0.19,0.10
2014-10-23 01:30:00,2,3863,71,3.53,2,2,0,2,406,7547,2610,3304,71,71,0,71,0.00,19.10,5.91,0.60
2014-10-23 01:40:00,2,2284,71,1.50,2,2,0,2,760,3303,797,2581,71,71,0,71,0.00,8.65,2.69,0.15
2014-10-23 01:50:00,2,3410,71,0.20,2,2,0,2,2725,4107,476,3430,71,71,0,71,0.05,0.50,0.18,0.15
2014-10-23 02:00:00,2,1405,71,3.83,2,2,0,2,643,2472,610,1329,71,71,0,71,0.10,10.10,3.48,2.73
2014-10-23 02:10:00,2,2619,71,0.67,2,2,0,2,1414,3366,567,2630,71,71,0,71,0.05,2.45,0.82,0.15
2014-10-23 02:20:00,2,1929,71,2.03,2,2,0,2,940,3901,776,1952,71,71,0,71,0.20,7.85,2.37,0.98
2014-10-23 02:30:00,2,3196,71,0.35,2,2,0,2,2470,5160,864,2914,71,71,0,71,0.05,1.05,0.35,0.17
2014-10-23 02:40:00,2,1984,71,2.01,2,2,0,2,1228,2986,575,1850,71,71,0,71,0.40,3.90,1.01,2.15
2014-10-23 02:50:00,2,2092,71,0.58,2,2,0,2,1427,2879,455,2112,71,71,0,71,0.05,1.60,0.57,0.40
2014-10-23 03:00:00,2,2228,71,1.04,2,2,0,2,1376,3297,622,2100,71,71,0,71,0.10,2.25,0.85,0.95
2014-10-23 03:10:00,2,2544,71,0.49,2,2,0,2,1790,3831,591,2420,71,71,0,71,0.00,1.45,0.45,0.40
2014-10-23 03:20:00,2,3908,71,0.27,2,2,0,2,2494,5641,1119,3548,71,71,0,71,0.00,1.80,0.52,0.05
2014-10-23 03:30:00,2,4631,71,0.24,2,2,0,2,2382,6093,1232,4962,71,71,0,71,0.00,1.05,0.30,0.15
2014-10-23 03:40:00,2,2277,71,2.07,2,2,0,2,937,3113,816,2740,71,71,0,71,0.25,5.60,2.16,0.88
2014-10-23 03:50:00,2,2234,71,1.59,2,2,0,2,1434,3797,666,2056,71,71,0,71,0.15,2.75,0.86,1.70
2014-10-23 04:00:00,2,2562,71,1.19,2,2,0,2,1537,3387,536,2678,71,71,0,71,0.15,2.05,0.63,1.38
2014-10-23 04:10:00,2,3490,71,0.69,2,2,0,2,2074,5270,1051,3290,71,71,0,71,0.05,1.15,0.37,0.70
2014-10-23 04:20:00,2,2771,71,1.24,2,2,0,2,1975,3784,551,2658,71,71,0,71,0.30,2.30,0.57,1.20
2014-10-23 04:30:00,2,3020,71,1.33,2,2,0,2,1713,3989,821,3458,71,71,0,71,0.35,2.90,0.89,0.97
2014-10-23 04:40:00,2,1925,71,2.20,2,2,0,2,1175,2821,504,1940,71,71,0,71,0.75,3.90,1.00,2.45
2014-10-23 04:50:00,2,2615,71,1.31,2,2,0,2,1853,3782,611,2456,71,71,0,71,0.35,2.40,0.63,1.18
2014-10-23 05:00:00,2,4202,71,1.05,2,2,0,2,2957,5832,896,4260,71,71,0,71,0.10,2.50,0.63,1.20
2014-10-23 05:10:00,2,5356,71,0.70,2,2,0,2,3428,6734,1207,5677,71,71,0,71,0.20,1.30,0.36,0.57
2014-10-23 05:20:00,2,2791,71,1.51,2,2,0,2,1657,4090,640,2793,71,71,0,71,0.20,3.10,0.72,1.60
2014-10-23 05:30:00,2,2906,71,1.55,2,2,0,2,2033,3851,647,2942,71,71,0,71,0.25,2.65,0.80,1.43
2014-10-23 05:40:00,2,5816,71,0.42,2,2,0,2,3701,7214,1070,6118,71,71,0,71,0.05,0.70,0.21,0.40
2014-10-23 05:50:00,2,6038,71,0.57,2,2,0,2,4476,7464,817,6173,71,71,0,71,0.20,1.20,0.33,0.55
2014-10-23 06:00:00,2,4027,71,0.98,2,2,0,2,1383,6437,1616,4176,71,71,0,71,0.25,3.15,0.77,0.80
2014-10-23 06:10:00,2,3304,71,1.71,2,2,0,2,1181,4978,1238,3183,71,71,0,71,0.15,4.65,1.28,1.53
2014-10-23 06:20:00,2,3905,71,1.06,2,2,0,2,2718,5004,623,4009,71,71,0,71,0.40,1.80,0.44,0.85
2014-10-23 06:30:00,2,2764,71,1.42,2,2,0,2,1643,3585,618,2992,71,71,0,71,0.50,2.70,0.73,1.23
2014-10-23 06:40:00,2,2127,71,1.69,2,2,0,2,1447,2673,427,2200,71,71,0,71,0.20,3.40,0.98,1.38
2014-10-23 06:50:00,2,3046,71,0.84,2,2,0,2,1826,4455,752,3072,71,71,0,71,0.15,2.20,0.67,0.70
2014-10-23 07:00:00,2,1967,71,1.42,2,2,0,2,1546,2627,406,1822,71,71,0,71,0.75,2.55,0.69,1.23
2014-10-23 07:10:00,2,1891,71,1.57,2,2,0,2,1228,2304,290,1911,71,71,0,71,0.80,2.05,0.43,1.60
2014-10-23 07:20:00,2,2019,71,1.31,2,2,0,2,1458,2812,449,1920,71,71,0,71,0.30,2.10,0.60,1.20
2014-10-23 07:30:00,2,2581,71,0.78,2,2,0,2,1512,3749,612,2556,71,71,0,71,0.40,1.30,0.27,0.75
2014-10-23 07:40:00,2,5076,71,0.24,2,2,0,2,3344,7043,1011,4858,71,71,0,71,0.05,0.65,0.21,0.12
2014-10-23 07:50:00,2,6092,71,0.12,2,2,0,2,4580,7039,896,6398,71,71,0,71,0.00,0.30,0.09,0.10
2014-10-23 08:00:00,2,5290,71,0.30,2,2,0,2,4565,6716,661,5064,71,71,0,71,0.00,0.75,0.21,0.28
2014-10-23 08:10:00,2,2474,71,2.17,2,2,0,2,535,5492,1666,2414,71,71,0,71,0.05,7.85,2.39,1.05
2014-10-23 08:20:00,2,894,71,3.45,2,2,0,2,612,1277,200,892,71,71,0,71,1.30,7.20,1.78,3.08
2014-10-23 08:30:00,2,1519,71,1.64,2,2,0,2,954,2077,353,1446,71,71,0,71,0.55,3.10,0.65,1.48
2014-10-23 08:40:00,2,1973,71,1.05,2,2,0,2,1281,3294,552,1856,71,71,0,71,0.35,2.50,0.67,0.85
2014-10-23 08:50:00,2,2119,71,0.79,2,2,0,2,1503,2624,354,2200,71,71,0,71,0.25,1.50,0.39,0.73
2014-10-23 09:00:00,2,2054,71,1.60,2,2,0,2,1681,2635,325,1983,71,71,0,71,0.65,3.10,0.66,1.62
2014-10-23 09:10:00,2,2192,71,0.90,2,2,0,2,1530,3329,541,2042,71,71,0,71,0.25,1.50,0.38,0.80
2014-10-23 09:20:00,2,3784,71,0.55,2,2,0,2,2413,5934,1043,3477,71,71,0,71,0.00,1.95,0.57,0.30
2014-10-23 09:30:00,2,2319,71,1.35,2,2,0,2,1606,3092,473,2304,71,71,0,71,0.65,2.10,0.44,1.35
2014-10-23 09:40:00,2,2359,71,0.78,2,2,0,2,2052,2712,215,2353,71,71,0,71,0.25,1.80,0.47,0.65
2014-10-23 09:50:00,2,2532,71,1.24,2,2,0,2,2230,3100,268,2459,71,71,0,71,0.60,1.70,0.37,1.40
2014-10-23 10:00:00,2,2382,71,1.32,2,2,0,2,1584,3290,489,2384,71,71,0,71,0.35,3.20,0.79,1.20
2014-10-23 10:10:00,2,2331,71,1.80,2,2,0,2,1415,3285,689,2474,71,71,0,71,0.25,4.35,1.38,1.20
2014-10-23 10:20:00,2,2787,71,1.35,2,2,0,2,1946,3610,432,2790,71,71,0,71,0.90,2.50,0.52,1.15
2014-10-23 10:30:00,2,2074,71,1.59,2,2,0,2,1676,2660,338,1972,71,71,0,71,0.35,2.95,0.90,1.65
2014-10-23 10:40:00,2,2386,71,1.24,2,2,0,2,1843,3168,486,2366,71,71,0,71,0.25,2.50,0.66,1.27
2014-10-23 10:50:00,2,2829,71,0.90,2,2,0,2,2329,3538,314,2780,71,71,0,71,0.10,1.45,0.40,0.85
2014-10-23 11:00:00,2,3603,71,0.72,2,2,0,2,2999,4071,359,3578,71,71,0,71,0.15,2.20,0.58,0.65
2014-10-23 11:10:00,2,2921,71,1.31,2,2,0,2,2008,3602,469,2966,71,71,0,71,0.20,2.95,0.69,1.27
2014-10-23 11:20:00,2,2269,71,1.58,2,2,0,2,1946,2586,190,2310,71,71,0,71,0.95,2.80,0.61,1.35
2014-10-23 11:30:00,2,2754,71,1.31,2,2,0,2,1808,3424,516,2712,71,71,0,71,0.50,2.40,0.62,1.28
2014-10-23 11:40:00,2,3467,71,0.78,2,2,0,2,2805,4253,486,3498,71,71,0,71,0.25,1.90,0.52,0.65
2014-10-23 11:50:00,2,4673,71,0.82,2,2,0,2,3695,5832,627,4434,71,71,0,71,0.30,1.60,0.47,0.70
2014-10-23 12:00:00,2,6484,71,0.39,2,2,0,2,5467,7623,747,6263,71,71,0,71,0.10,0.85,0.22,0.30
2014-10-23 12:10:00,2,6673,71,0.19,2,2,0,2,5172,7456,705,6932,71,71,0,71,0.05,0.45,0.12,0.15
2014-10-23 12:20:00,2,7823,71,0.12,2,2,0,2,6806,9108,692,7928,71,71,0,71,0.00,0.35,0.11,0.10
2014-10-23 12:30:00,2,7761,74,0.03,2,2,0,2,6456,8659,729,7872,71,77,3,74,0.00,0.10,0.03,0.03
2014-10-23 12:40:00,2,5458,76,0.17,2,2,0,2,3739,7694,1103,5428,71,77,2,77,0.05,0.40,0.10,0.15
2014-10-23 12:50:00,2,2560,72,3.00,2,2,0,2,800,4582,1450,2408,71,77,2,71,0.15,9.10,2.95,2.00
2014-10-23 13:00:00,2,1400,71,4.15,2,2,0,2,570,2029,449,1378,71,71,0,71,1.10,14.10,4.08,2.42
2014-10-23 13:10:00,2,1619,71,2.77,2,2,0,2,1163,2107,296,1597,71,71,0,71,1.45,5.30,1.21,2.50
2014-10-23 13:20:00,2,1814,71,2.43,2,2,0,2,1053,2726,522,1786,71,71,0,71,0.80,5.90,1.69,1.65
2014-10-23 13:30:00,2,2012,71,1.36,2,2,0,2,1491,2318,263,2120,71,71,0,71,0.30,3.05,0.82,1.30
2014-10-23 13:40:00,2,2347,71,1.07,2,2,0,2,2116,2594,175,2314,71,71,0,71,0.50,1.55,0.38,1.05
2014-10-23 13:50:00,2,3027,71,0.40,2,2,0,2,2703,3593,256,2994,71,71,0,71,0.10,0.75,0.21,0.35
2014-10-23 14:00:00,2,3425,71,0.44,2,2,0,2,2559,4012,444,3543,71,71,0,71,0.05,0.85,0.26,0.45
2014-10-23 14:10:00,2,3170,72,0.15,2,2,0,2,2417,4032,514,3094,71,77,2,71,0.05,0.50,0.14,0.10
2014-10-23 14:20:00,2,1537,72,4.37,2,2,0,2,443,2623,623,1655,71,77,2,71,0.45,17.05,5.03,2.17
2014-10-23 14:30:00,2,2570,71,3.44,2,2,0,2,507,4418,1316,2650,71,71,0,71,0.15,15.75,4.68,1.12
2014-10-23 14:40:00,2,4114,71,0.36,2,2,0,2,2907,5496,843,3728,71,71,0,71,0.05,0.80,0.29,0.30
2014-10-23 14:50:00,2,4501,71,0.47,2,2,0,2,4060,5366,377,4364,71,71,0,71,0.15,1.05,0.31,0.42
2014-10-23 15:00:00,2,4342,71,0.45,2,2,0,2,3588,6070,706,4150,71,71,0,71,0.15,0.85,0.20,0.45
2014-10-23 15:10:00,2,6932,72,0.03,2,2,0,2,5900,9168,1024,6534,71,77,2,71,0.00,0.15,0.05,0.00
2014-10-23 15:20:00,2,3145,77,0.19,2,2,0,2,1849,7190,1518,2552,77,77,0,77,0.00,0.80,0.23,0.12
2014-10-23 15:30:00,2,1412,71,6.22,2,2,0,2,367,2544,725,1678,71,71,0,71,0.30,20.70,7.84,1.52
2014-10-23 15:40:00,2,1518,71,9.21,2,2,0,2,269,2867,928,1688,71,72,0,71,0.50,26.80,9.93,4.20
2014-10-23 15:50:00,2,8217,57,1.31,2,2,0,2,2402,19299,6971,3608,0,71,28,71,0.00,2.95,1.15,1.27
2014-10-23 16:00:00,2,13058,0,0.00,2,2,0,2,9991,17166,2509,12362,0,0,0,0,0.00,0.00,0.00,0.00
2014-10-23 16:10:00,2,15492,24,0.01,2,2,0,2,11229,18499,2133,15149,0,41,20,40,0.00,0.05,0.02,0.00
2014-10-23 16:20:00,2,10757,20,0.02,2,2,0,2,6425,17224,3232,10618,0,41,20,20,0.00,0.05,0.02,0.00
2014-10-23 16:30:00,2,12439,4,0.00,2,2,0,2,10073,15993,1796,11826,0,41,12,0,0.00,0.00,0.00,0.00
2014-10-23 16:40:00,2,12641,0,0.00,2,2,0,2,9094,18073,2831,12458,0,0,0,0,0.00,0.00,0.00,0.00
2014-10-23 16:50:00,2,17155,0,0.00,2,2,0,2,12835,24862,4261,15456,0,0,0,0,0.00,0.00,0.00,0.00
2014-10-23 17:00:00,2,23999,0,0.00,2,2,0,2,16787,30428,4289,24730,0,0,0,0,0.00,0.00,0.00,0.00
2014-10-23 17:10:00,2,14738,0,0.00,2,2,0,2,12539,16812,1379,14650,0,0,0,0,0.00,0.00,0.00,0.00
2014-10-23 17:20:00,2,18264,0,0.00,2,2,0,2,11141,23055,3995,17912,0,0,0,0,0.00,0.00,0.00,0.00
2014-10-23 17:30:00,2,11263,0,0.00,2,2,0,2,7493,15518,2095,10492,0,0,0,0,0.00,0.00,0.00,0.00
2014-10-23 17:40:00,2,18072,0,0.00,2,2,0,2,13272,22384,3776,18454,0,0,0,0,0.00,0.00,0.00,0.00
2014-10-23 17:50:00,2,25245,0,0.00,2,2,0,2,23700,27523,1232,25174,0,0,0,0,0.00,0.00,0.00,0.00
2014-10-23 18:00:00,2,24285,0,0.00,2,2,0,2,22408,26162,1270,24394,0,0,0,0,0.00,0.00,0.00,0.00
2014-10-23 18:10:00,2,25638,0,0.00,2,2,0,2,22467,28176,1758,25880,0,0,0,0,0.00,0.00,0.00,0.00
2014-10-23 18:20:00,2,26739,0,0.00,2,2,0,2,19474,35354,5230,26729,0,0,0,0,0.00,0.00,0.00,0.00
2014-10-23 18:30:00,2,28318,0,0.00,2,2,0,2,22024,32690,3381,29594,0,0,0,0,0.00,0.00,0.00,0.00
2014-10-23 18:40:00,2,32229,0,0.00,2,2,0,2,25848,36693,3517,32291,0,0,0,0,0.00,0.00,0.00,0.00
2014-10-23 18:50:00,2,28113,0,0.00,2,2,0,2,23996,33576,3336,26533,0,0,0,0,0.00,0.00,0.00,0.00
2014-10-23 19:00:00,2,26482,0,0.00,2,2,0,2,22668,34522,4257,24142,0,0,0,0,0.00,0.00,0.00,0.00
2014-10-23 19:10:00,2,19956,0,0.00,2,2,0,2,17128,23095,2152,20358,0,0,0,0,0.00,0.00,0.00,0.00
2014-10-23 19:20:00,2,23165,0,0.00,2,2,0,2,21077,25804,1402,22660,0,0,0,0,0.00,0.00,0.00,0.00
2014-10-23 19:30:00,2,31499,0,0.00,2,2,0,2,27806,39355,3275,30737,0,0,0,0,0.00,0.00,0.00,0.00
2014-10-23 19:40:00,2,33224,0,0.00,2,2,0,2,30607,36995,2147,32372,0,0,0,0,0.00,0.00,0.00,0.00
2014-10-23 19:50:00,2,31587,0,0.00,2,2,0,2,25781,36225,3769,31360,0,0,0,0,0.00,0.00,0.00,0.00
2014-10-23 20:00:00,2,21813,0,0.00,2,2,0,2,18075,28150,2741,21480,0,0,0,0,0.00,0.00,0.00,0.00
2014-10-23 20:10:00,2,25967,0,0.00,2,2,0,2,20783,29983,2987,26454,0,0,0,0,0.00,0.00,0.00,0.00
2014-10-23 20:20:00,2,20788,0,0.00,2,2,0,2,15184,24411,2860,20806,0,0,0,0,0.00,0.00,0.00,0.00
2014-10-23 20:30:00,2,11414,65,0.05,2,2,0,2,8711,12591,1130,11784,40,71,12,71,0.00,0.15,0.05,0.05
2014-10-23 20:40:00,2,18578,73,0.01,2,2,0,2,12799,24017,3460,18454,71,77,3,71,0.00,0.10,0.03,0.00
2014-10-23 20:50:00,2,27542,14,0.00,2,2,0,2,23115,34730,3522,26068,0,71,28,0,0.00,0.00,0.00,0.00
2014-10-23 21:00:00,2,32701,0,0.00,2,2,0,2,27322,36759,2940,33149,0,0,0,0,0.00,0.00,0.00,0.00
2014-10-23 21:10:00,2,25797,0,0.00,2,2,0,2,21593,29915,2238,26041,0,0,0,0,0.00,0.00,0.00,0.00
2014-10-23 21:20:00,2,12718,51,0.03,2,2,0,2,7421,18135,2930,13144,0,71,28,71,0.00,0.05,0.03,0.03
2014-10-23 21:30:00,2,13923,72,0.01,2,2,0,2,11229,16993,1564,13906,71,77,2,71,0.00,0.05,0.02,0.00
2014-10-23 21:40:00,2,11970,72,0.03,2,2,0,2,9041,18505,2564,11306,71,77,2,71,0.00,0.25,0.07,0.00
2014-10-23 21:50:00,2,21483,60,0.00,2,2,0,2,15838,26605,3794,22262,0,77,30,74,0.00,0.00,0.00,0.00
2014-10-23 22:00:00,2,26584,0,0.00,2,2,0,2,22714,31245,2606,26885,0,0,0,0,0.00,0.00,0.00,0.00
2014-10-23 22:10:00,2,29695,0,0.00,2,2,0,2,25486,34584,2786,29863,0,0,0,0,0.00,0.00,0.00,0.00
2014-10-23 22:20:00,2,31709,0,0.00,2,2,0,2,28619,36787,2731,30696,0,0,0,0,0.00,0.00,0.00,0.00
2014-10-23 22:30:00,2,31183,0,0.00,2,2,0,2,27424,34921,2398,31164,0,0,0,0,0.00,0.00,0.00,0.00
2014-10-23 22:40:00,2,29955,0,0.00,2,2,0,2,26136,34978,2966,29874,0,0,0,0,0.00,0.00,0.00,0.00
2014-10-23 22:50:00,2,33512,0,0.00,2,2,0,2,30421,37317,2545,32916,0,0,0,0,0.00,0.00,0.00,0.00
2014-10-23 23:00:00,2,34927,0,0.00,2,2,0,2,29979,38618,2881,34146,0,0,0,0,0.00,0.00,0.00,0.00
2014-10-23 23:10:00,2,33103,0,0.00,2,2,0,2,26472,38288,4397,33694,0,0,0,0,0.00,0.00,0.00,0.00
2014-10-23 23:20:00,2,30719,0,0.00,2,2,0,2,23575,37226,4854,28978,0,0,0,0,0.00,0.00,0.00,0.00
2014-10-23 23:30:00,2,31954,0,0.00,2,2,0,2,28006,35451,2630,31540,0,0,0,0,0.00,0.00,0.00,0.00
2014-10-23 23:40:00,2,32722,0,0.00,2,2,0,2,24906,39765,5000,33087,0,0,0,0,0.00,0.00,0.00,0.00
2014-10-23 23:50:00,2,25867,0,0.00,2,2,0,2,20563,40411,5389,24205,0,0,0,0,0.00,0.00,0.00,0.00
